Theta_e
305 306 305 299 301 305 299 295 295 299 306 312 315 315 318 319 319 319 319 327 331 333 338 340 343 346 347 346 347 348 348 348
302 304 308 301 305 300 297 293 292 298 302 303 308 311 315 317 317 318 318 319 321 332 335 342 344 346 348 348 347 348 349 349
296 295 297 304 301 301 300 297 294 292 298 310 311 313 315 317 318 316 317 317 318 321 335 339 344 345 346 347 347 347 348 348
295 298 298 302 302 302 296 296 295 295 298 312 314 315 317 317 314 316 318 318 321 330 334 335 341 344 344 347 347 349 350 349
291 293 296 297 302 299 300 300 297 296 299 313 312 314 316 315 316 316 320 320 327 331 333 334 337 341 344 346 348 349 350 350
290 292 295 296 304 303 301 298 297 299 301 309 313 313 313 314 316 326 333 332 327 328 331 334 339 339 340 344 348 349 350 350
292 296 296 297 298 305 302 301 300 301 303 307 309 312 314 319 331 333 334 335 337 336 336 332 335 338 341 342 346 347 347 349
291 295 297 304 307 302 309 302 302 302 303 310 314 326 326 326 329 328 330 334 338 340 342 343 340 336 338 341 345 348 348 349
290 293 300 296 305 307 307 308 306 301 303 315 322 323 324 324 325 325 325 328 333 337 339 342 346 347 339 338 346 348 349 351
288 293 287 300 310 310 306 307 307 311 312 322 319 319 320 323 323 323 324 325 327 329 330 336 343 348 347 341 346 348 348 349
289 289 298 306 307 307 308 303 307 313 319 317 317 316 314 319 321 320 323 324 325 327 332 334 334 339 344 346 347 344 345 346
292 295 293 301 308 309 310 302 308 309 310 314 316 303 306 313 320 317 321 322 321 322 323 328 334 334 331 330 333 339 350 351
295 294 297 303 306 309 300 303 307 309 307 307 306 307 311 313 315 317 318 319 319 319 319 321 329 334 332 333 332 334 341 353
294 293 293 304 306 304 304 306 307 308 309 309 310 311 312 313 314 315 315 317 317 316 317 319 322 325 326 329 336 337 337 347
294 294 302 305 304 306 306 304 306 308 311 312 312 312 312 312 314 316 316 315 316 315 315 316 318 320 321 325 331 336 336 337
297 302 304 307 309 310 310 309 310 311 310 311 310 311 310 311 312 312 313 313 314 314 313 314 317 318 319 322 326 331 333 333
299 302 306 307 308 310 311 312 311 312 311 310 310 309 310 310 310 311 311 312 312 311 312 313 316 317 319 320 322 323 329 333
297 304 305 305 309 311 310 309 310 309 309 309 310 308 308 307 308 308 308 309 309 311 311 312 315 315 317 319 320 320 321 327
303 309 308 308 308 309 308 308 307 306 307 305 307 307 307 306 307 308 308 308 308 309 311 312 313 314 316 317 319 318 318 321
Wind_Speed
4 4 7 2 1 3 8 3 3 3 7 9 4 2 2 7 6 7 6 6 7 7 8 10 13 15 15 14 12 13 13 11
2 3 4 4 3 4 3 4 2 5 5 6 5 5 5 6 7 7 8 7 7 6 8 9 11 10 11 11 13 13 12 10
1 4 9 2 2 6 5 4 6 2 8 9 9 9 6 7 6 7 8 7 6 7 7 9 9 10 11 10 11 11 12 10
11 3 1 3 6 7 6 4 2 3 8 3 10 3 4 7 8 8 8 8 2 3 6 8 10 11 11 11 13 13 11 11
10 7 1 5 5 5 5 4 7 7 9 4 5 2 5 7 8 9 11 9 8 4 3 3 5 6 8 9 11 9 9 10
10 9 6 4 5 4 6 5 6 7 6 6 7 8 6 8 8 8 11 14 10 9 6 3 1 4 5 6 7 8 10 11
6 5 2 1 2 9 8 6 7 6 9 8 4 8 5 5 7 13 15 17 14 12 9 7 4 5 5 6 7 6 8 11
4 5 5 4 4 6 2 3 4 5 2 1 4 13 12 9 12 13 13 14 13 13 12 11 8 6 6 7 5 6 8 11
8 5 7 2 1 3 5 4 3 4 2 3 12 16 10 10 12 11 11 11 13 13 11 11 13 9 8 6 5 7 8 7
4 4 3 4 7 12 12 6 8 1 6 10 15 13 12 10 11 12 11 12 13 12 13 13 12 13 10 8 0 4 4 5
7 4 2 3 6 1 4 5 8 5 13 15 15 15 12 11 10 8 8 10 10 10 10 13 16 14 13 14 10 6 4 5
3 8 8 3 3 5 3 4 6 4 7 4 2 10 3 8 8 11 11 10 11 12 14 14 14 11 13 14 13 13 10 9
4 5 1 1 9 5 4 7 3 4 4 6 11 5 2 6 11 10 11 13 11 13 13 11 11 11 14 13 15 12 12 9
3 6 4 10 4 6 5 6 7 5 6 11 8 7 8 11 11 10 10 11 11 9 9 10 13 13 12 12 11 11 11 11
3 4 3 5 9 9 10 8 6 8 6 7 9 9 5 13 11 8 5 7 8 8 10 12 13 9 10 12 11 10 10 12
5 4 4 9 13 12 11 12 9 9 8 8 7 8 10 7 4 4 10 11 11 11 12 11 10 10 8 10 11 11 9 9
6 4 9 11 10 8 10 10 11 10 11 12 10 10 7 7 11 11 9 10 9 9 8 10 9 9 9 10 10 11 10 6
5 2 9 4 7 9 12 12 11 12 11 13 12 10 10 9 10 11 12 12 11 10 9 10 9 10 11 10 9 9 9 8
7 10 13 12 12 10 11 10 11 12 11 10 11 8 9 6 6 9 8 9 9 10 10 10 11 11 12 11 11 11 9 10
Wind_Direction
207 153 130 182 158 178 103 10 67 270 295 309 274 148 303 304 325 332 321 299 258 185 185 179 177 181 184 180 183 185 195 191
305 93 48 141 144 73 16 133 237 306 301 242 280 234 276 311 315 328 318 307 288 219 179 181 179 180 182 183 189 184 190 194
124 177 174 58 60 52 109 107 157 181 265 216 224 210 226 276 295 314 295 304 278 254 176 166 167 177 182 181 184 186 189 190
235 227 321 174 167 146 125 216 85 144 271 231 225 172 264 308 332 315 297 305 323 186 152 155 174 180 186 186 194 196 188 187
341 359 58 189 176 127 111 88 188 133 261 307 272 320 359 329 322 325 337 5 37 35 147 169 174 175 189 198 206 197 184 187
195 205 163 171 160 155 119 125 168 219 273 284 265 96 21 12 7 10 9 26 38 37 15 27 284 211 214 213 202 189 187 194
221 213 215 120 158 168 186 176 158 230 203 253 68 115 54 29 26 35 25 26 19 26 20 16 345 263 228 219 197 187 192 200
222 195 178 96 4 130 67 83 295 146 244 73 62 88 59 44 48 35 22 25 22 25 14 6 348 342 271 248 199 181 200 221
242 142 122 20 219 141 122 80 289 165 120 152 87 76 58 52 51 41 25 25 24 25 12 4 2 345 316 278 180 191 205 217
137 70 161 287 101 113 100 46 0 251 147 114 106 96 68 41 47 38 26 28 30 24 17 14 11 14 7 21 197 207 224 233
127 90 102 295 264 106 130 7 6 58 125 132 119 85 46 22 37 34 28 27 34 31 22 19 20 15 26 30 25 29 343 276
125 123 190 228 99 9 120 31 5 64 36 320 47 73 332 346 27 45 47 37 31 32 39 25 13 12 29 28 19 10 335 312
120 111 282 26 300 286 115 180 46 27 53 89 84 113 83 15 35 41 38 35 25 28 35 15 5 21 25 14 13 342 333 324
91 98 187 357 322 168 165 94 100 71 64 74 77 61 65 58 26 11 36 38 31 31 17 10 18 18 11 7 340 339 339 342
90 139 318 315 76 70 82 86 50 77 49 86 66 61 59 70 15 311 8 30 34 31 16 13 11 11 355 332 338 338 348 352
90 335 27 35 58 58 69 79 75 63 62 69 76 51 50 60 245 7 20 17 23 22 16 360 354 344 334 328 337 336 343 348
71 139 97 38 40 59 67 63 65 60 55 49 39 36 34 22 13 18 357 3 9 13 353 334 331 322 323 329 335 335 327 326
180 69 98 76 49 53 61 56 51 47 39 37 33 30 16 19 7 8 358 355 357 348 337 324 316 315 316 319 322 322 322 318
118 99 95 86 57 46 67 55 66 59 42 29 27 19 13 10 356 349 344 343 337 328 323 321 319 315 309 312 314 315 309 308